QPF
0.05 0.10 0.29 0.53 0.59 0.34 0.26 0.16 0.07 0.05 0.03 0.02 0.01 0.00 0.02 0.09 0.11 0.08 0.15 0.20 0.19 0.16 0.10 0.09 0.08 0.05 0.03 0.02 0.01 0.01 0.01 0.01 0.02 0.02 0.02 0.02 0.01 0.01 0.01 0.01 0.01 0.01 0.00 0.00 0.00 0.00 0.00 0.00 0.00
0.04 0.16 0.40 0.66 0.39 0.21 0.20 0.16 0.08 0.03 0.04 0.03 0.01 0.00 0.01 0.02 0.03 0.07 0.20 0.26 0.20 0.14 0.09 0.06 0.06 0.04 0.03 0.02 0.01 0.01 0.00 0.01 0.01 0.01 0.01 0.01 0.01 0.02 0.02 0.02 0.02 0.01 0.01 0.01 0.00 0.00 0.00 0.00 0.00
0.12 0.38 0.63 0.53 0.29 0.17 0.17 0.13 0.07 0.02 0.03 0.02 0.02 0.01 0.01 0.02 0.07 0.14 0.23 0.23 0.20 0.12 0.06 0.06 0.05 0.02 0.02 0.01 0.01 0.01 0.00 0.00 0.00 0.00 0.01 0.01 0.02 0.02 0.02 0.02 0.03 0.02 0.01 0.01 0.01 0.00 0.00 0.00 0.00
0.22 0.52 0.57 0.34 0.27 0.28 0.16 0.11 0.05 0.01 0.01 0.01 0.01 0.01 0.01 0.04 0.10 0.16 0.16 0.15 0.12 0.08 0.04 0.04 0.04 0.02 0.02 0.01 0.00 0.00 0.00 0.00 0.00 0.00 0.00 0.01 0.01 0.01 0.01 0.02 0.03 0.03 0.02 0.02 0.02 0.01 0.01 0.00 0.01
0.36 0.49 0.35 0.20 0.22 0.30 0.14 0.06 0.03 0.02 0.01 0.01 0.01 0.03 0.04 0.09 0.09 0.10 0.11 0.11 0.08 0.06 0.04 0.02 0.03 0.02 0.01 0.01 0.01 0.01 0.00 0.00 0.01 0.01 0.01 0.01 0.01 0.01 0.02 0.01 0.02 0.03 0.03 0.04 0.04 0.02 0.01 0.01 0.01
0.37 0.37 0.24 0.18 0.21 0.29 0.12 0.06 0.03 0.02 0.02 0.01 0.01 0.02 0.03 0.07 0.05 0.04 0.05 0.05 0.05 0.04 0.03 0.03 0.04 0.03 0.02 0.03 0.02 0.02 0.02 0.02 0.02 0.03 0.03 0.02 0.02 0.02 0.02 0.02 0.02 0.03 0.03 0.04 0.04 0.03 0.02 0.02 0.01
0.33 0.29 0.19 0.14 0.18 0.21 0.10 0.05 0.02 0.02 0.01 0.01 0.00 0.01 0.01 0.03 0.01 0.01 0.02 0.03 0.03 0.03 0.03 0.03 0.03 0.03 0.03 0.03 0.03 0.03 0.02 0.02 0.03 0.04 0.05 0.05 0.05 0.04 0.04 0.04 0.03 0.03 0.04 0.04 0.04 0.03 0.02 0.02 0.01
0.28 0.26 0.16 0.14 0.15 0.12 0.06 0.03 0.01 0.01 0.01 0.00 0.00 0.01 0.01 0.01 0.01 0.01 0.01 0.01 0.01 0.01 0.02 0.02 0.02 0.03 0.02 0.03 0.04 0.05 0.04 0.04 0.04 0.05 0.06 0.05 0.05 0.06 0.06 0.07 0.07 0.07 0.07 0.07 0.07 0.06 0.05 0.03 0.02
0.27 0.21 0.11 0.13 0.14 0.07 0.03 0.02 0.01 0.00 0.00 0.00 0.00 0.00 0.00 0.00 0.00 0.00 0.00 0.00 0.00 0.00 0.01 0.00 0.01 0.01 0.01 0.02 0.03 0.04 0.04 0.05 0.05 0.05 0.06 0.06 0.03 0.03 0.04 0.05 0.09 0.10 0.11 0.11 0.10 0.09 0.07 0.05 0.03
0.26 0.17 0.12 0.10 0.09 0.03 0.01 0.01 0.00 0.00 0.00 0.00 0.00 0.00 0.00 0.00 0.00 0.00 0.00 0.00 0.00 0.00 0.00 0.00 0.00 0.00 0.00 0.01 0.01 0.01 0.01 0.02 0.03 0.04 0.05 0.06 0.06 0.05 0.04 0.04 0.10 0.15 0.15 0.13 0.11 0.10 0.08 0.05 0.02
0.27 0.25 0.18 0.12 0.06 0.03 0.01 0.01 0.00 0.00 0.00 0.00 0.00 0.00 0.00 0.00 0.00 0.00 0.00 0.00 0.00 0.00 0.00 0.00 0.00 0.00 0.00 0.00 0.00 0.00 0.01 0.01 0.01 0.02 0.03 0.05 0.06 0.06 0.06 0.06 0.07 0.10 0.12 0.10 0.09 0.09 0.06 0.04 0.02
0.33 0.30 0.21 0.13 0.05 0.03 0.02 0.01 0.01 0.01 0.00 0.00 0.00 0.00 0.00 0.00 0.00 0.00 0.00 0.00 0.00 0.00 0.00 0.00 0.00 0.00 0.00 0.00 0.00 0.00 0.00 0.00 0.01 0.01 0.02 0.04 0.04 0.05 0.05 0.07 0.07 0.08 0.09 0.09 0.07 0.06 0.06 0.05 0.04
0.29 0.33 0.22 0.09 0.04 0.03 0.02 0.01 0.01 0.00 0.00 0.00 0.00 0.00 0.00 0.00 0.00 0.00 0.00 0.00 0.00 0.00 0.00 0.00 0.00 0.00 0.00 0.00 0.00 0.00 0.00 0.00 0.01 0.01 0.02 0.03 0.03 0.04 0.05 0.06 0.05 0.06 0.08 0.10 0.11 0.08 0.07 0.07 0.07
0.35 0.24 0.17 0.08 0.04 0.03 0.03 0.02 0.01 0.01 0.00 0.00 0.00 0.00 0.00 0.00 0.00 0.00 0.00 0.00 0.00 0.00 0.00 0.00 0.00 0.00 0.00 0.00 0.00 0.00 0.00 0.00 0.01 0.01 0.01 0.01 0.02 0.02 0.03 0.03 0.03 0.04 0.05 0.08 0.11 0.09 0.08 0.07 0.09
0.24 0.15 0.12 0.09 0.09 0.06 0.04 0.03 0.01 0.01 0.00 0.00 0.00 0.00 0.00 0.00 0.00 0.00 0.00 0.00 0.00 0.00 0.00 0.00 0.00 0.00 0.00 0.00 0.00 0.00 0.00 0.00 0.00 0.00 0.00 0.01 0.01 0.02 0.02 0.03 0.03 0.04 0.05 0.06 0.08 0.10 0.12 0.11 0.10
0.18 0.14 0.12 0.10 0.11 0.08 0.04 0.01 0.00 0.00 0.00 0.00 0.00 0.00 0.00 0.00 0.00 0.00 0.00 0.00 0.00 0.00 0.00 0.00 0.00 0.00 0.00 0.00 0.00 0.00 0.00 0.00 0.00 0.00 0.00 0.01 0.01 0.02 0.02 0.03 0.03 0.03 0.05 0.05 0.05 0.07 0.10 0.12 0.12
0.19 0.16 0.15 0.17 0.14 0.07 0.02 0.00 0.00 0.00 0.00 0.00 0.00 0.00 0.00 0.00 0.00 0.00 0.00 0.00 0.00 0.00 0.00 0.00 0.00 0.00 0.00 0.00 0.00 0.00 0.00 0.00 0.00 0.00 0.00 0.01 0.01 0.01 0.02 0.03 0.03 0.03 0.03 0.04 0.05 0.06 0.07 0.10 0.14
0.18 0.14 0.11 0.13 0.11 0.05 0.02 0.00 0.00 0.00 0.00 0.00 0.00 0.00 0.00 0.00 0.00 0.00 0.00 0.00 0.00 0.00 0.00 0.00 0.00 0.00 0.00 0.00 0.00 0.00 0.00 0.00 0.00 0.00 0.01 0.01 0.01 0.00 0.01 0.01 0.02 0.03 0.03 0.03 0.04 0.05 0.06 0.07 0.11
0.12 0.08 0.04 0.04 0.04 0.03 0.01 0.00 0.00 0.00 0.00 0.00 0.00 0.00 0.00 0.00 0.00 0.00 0.00 0.00 0.00 0.00 0.00 0.00 0.00 0.00 0.00 0.00 0.00 0.00 0.00 0.00 0.00 0.00 0.01 0.01 0.01 0.00 0.00 0.01 0.01 0.01 0.02 0.02 0.03 0.04 0.06 0.07 0.10
0.08 0.04 0.02 0.02 0.01 0.01 0.00 0.00 0.00 0.00 0.00 0.00 0.00 0.00 0.00 0.00 0.00 0.00 0.00 0.00 0.00 0.00 0.00 0.00 0.00 0.00 0.00 0.00 0.00 0.00 0.00 0.00 0.00 0.00 0.00 0.00 0.00 0.01 0.01 0.01 0.01 0.01 0.01 0.02 0.03 0.05 0.06 0.07 0.10
0.06 0.03 0.02 0.01 0.01 0.01 0.00 0.00 0.00 0.00 0.00 0.00 0.00 0.00 0.00 0.00 0.00 0.00 0.00 0.00 0.00 0.00 0.00 0.00 0.00 0.00 0.00 0.00 0.00 0.00 0.00 0.00 0.00 0.00 0.00 0.00 0.00 0.01 0.01 0.00 0.01 0.02 0.01 0.01 0.02 0.04 0.05 0.07 0.10
0.03 0.01 0.01 0.00 0.00 0.00 0.00 0.00 0.00 0.00 0.00 0.00 0.00 0.00 0.00 0.00 0.00 0.00 0.00 0.00 0.00 0.00 0.00 0.00 0.00 0.00 0.00 0.00 0.00 0.00 0.00 0.00 0.00 0.00 0.00 0.00 0.00 0.00 0.01 0.00 0.00 0.01 0.01 0.01 0.01 0.03 0.03 0.03 0.05
0.01 0.00 0.00 0.00 0.00 0.00 0.00 0.00 0.00 0.00 0.00 0.00 0.00 0.00 0.00 0.00 0.00 0.00 0.00 0.00 0.00 0.00 0.00 0.00 0.00 0.00 0.00 0.00 0.00 0.00 0.00 0.00 0.00 0.00 0.00 0.00 0.00 0.00 0.00 0.00 0.00 0.00 0.00 0.01 0.01 0.01 0.02 0.02 0.02
0.00 0.00 0.00 0.00 0.00 0.00 0.00 0.00 0.00 0.00 0.00 0.00 0.00 0.00 0.00 0.00 0.00 0.00 0.00 0.00 0.00 0.00 0.00 0.00 0.00 0.00 0.00 0.00 0.00 0.00 0.00 0.00 0.00 0.00 0.00 0.00 0.00 0.00 0.00 0.00 0.01 0.01 0.00 0.00 0.01 0.01 0.02 0.02 0.03
0.00 0.00 0.00 0.00 0.00 0.00 0.00 0.00 0.00 0.00 0.00 0.00 0.00 0.00 0.00 0.00 0.00 0.00 0.00 0.00 0.00 0.00 0.00 0.00 0.00 0.00 0.00 0.00 0.00 0.00 0.00 0.00 0.00 0.00 0.00 0.00 0.00 0.00 0.00 0.00 0.01 0.01 0.01 0.01 0.00 0.00 0.01 0.01 0.02
0.00 0.00 0.00 0.00 0.00 0.00 0.00 0.00 0.00 0.00 0.00 0.00 0.00 0.00 0.00 0.00 0.00 0.00 0.00 0.00 0.00 0.00 0.00 0.00 0.00 0.00 0.00 0.00 0.00 0.00 0.00 0.00 0.00 0.00 0.00 0.00 0.00 0.00 0.00 0.00 0.00 0.00 0.01 0.01 0.00 0.00 0.00 0.01 0.01
0.00 0.00 0.00 0.00 0.00 0.00 0.00 0.00 0.00 0.00 0.00 0.00 0.00 0.00 0.00 0.00 0.00 0.00 0.00 0.00 0.00 0.00 0.00 0.00 0.00 0.00 0.00 0.00 0.00 0.00 0.00 0.00 0.00 0.00 0.00 0.00 0.00 0.00 0.00 0.00 0.00 0.00 0.00 0.01 0.01 0.01 0.00 0.01 0.01
0.00 0.00 0.00 0.00 0.00 0.00 0.00 0.00 0.00 0.00 0.00 0.00 0.00 0.00 0.00 0.00 0.00 0.00 0.00 0.00 0.00 0.00 0.00 0.00 0.00 0.00 0.00 0.00 0.00 0.00 0.00 0.00 0.00 0.00 0.00 0.00 0.00 0.00 0.00 0.00 0.00 0.00 0.00 0.00 0.01 0.01 0.01 0.01 0.01
0.00 0.00 0.00 0.00 0.00 0.00 0.00 0.00 0.00 0.00 0.00 0.00 0.00 0.00 0.00 0.00 0.00 0.00 0.00 0.00 0.00 0.00 0.00 0.00 0.00 0.00 0.00 0.00 0.00 0.00 0.00 0.00 0.00 0.00 0.00 0.00 0.00 0.00 0.00 0.00 0.01 0.01 0.00 0.00 0.01 0.01 0.01 0.01 0.01
0.00 0.00 0.00 0.00 0.00 0.00 0.00 0.00 0.00 0.00 0.00 0.00 0.00 0.00 0.00 0.00 0.00 0.00 0.00 0.00 0.00 0.00 0.00 0.00 0.00 0.00 0.00 0.00 0.00 0.00 0.00 0.00 0.00 0.00 0.00 0.00 0.00 0.00 0.00 0.00 0.00 0.00 0.00 0.00 0.00 0.00 0.01 0.01 0.01
MSLP
1012.38 1013.51 1014.72 1015.81 1016.65 1017.10 1017.14 1016.82 1016.25 1015.59 1015.03 1014.68 1014.60 1014.77 1015.11 1015.47 1015.72 1015.77 1015.56 1015.13 1014.56 1013.96 1013.46 1013.12 1013.00 1013.06 1013.24 1013.46 1013.64 1013.73 1013.72 1013.65 1013.55 1013.49 1013.51 1013.63 1013.83 1014.06 1014.30 1014.48 1014.58 1014.61 1014.59 1014.54 1014.50 1014.48 1014.50 1014.54 1014.57
1012.70 1013.96 1015.21 1016.28 1017.01 1017.32 1017.19 1016.71 1016.01 1015.28 1014.68 1014.33 1014.28 1014.49 1014.86 1015.24 1015.51 1015.55 1015.35 1014.93 1014.39 1013.84 1013.38 1013.10 1013.02 1013.11 1013.31 1013.53 1013.71 1013.79 1013.79 1013.71 1013.61 1013.55 1013.56 1013.65 1013.80 1013.99 1014.15 1014.28 1014.34 1014.34 1014.32 1014.29 1014.29 1014.32 1014.38 1014.45 1014.51
1013.08 1014.41 1015.67 1016.66 1017.27 1017.42 1017.14 1016.53 1015.75 1014.99 1014.40 1014.09 1014.09 1014.34 1014.72 1015.11 1015.36 1015.39 1015.18 1014.78 1014.27 1013.77 1013.37 1013.15 1013.11 1013.23 1013.43 1013.64 1013.79 1013.86 1013.84 1013.75 1013.66 1013.59 1013.58 1013.63 1013.73 1013.84 1013.94 1014.00 1014.01 1013.99 1013.97 1013.96 1014.00 1014.08 1014.20 1014.31 1014.40
1013.49 1014.85 1016.05 1016.93 1017.39 1017.39 1016.99 1016.30 1015.50 1014.77 1014.24 1014.01 1014.06 1014.34 1014.73 1015.10 1015.32 1015.32 1015.10 1014.71 1014.25 1013.81 1013.48 1013.30 1013.30 1013.42 1013.60 1013.78 1013.89 1013.92 1013.86 1013.76 1013.65 1013.57 1013.54 1013.56 1013.61 1013.66 1013.70 1013.69 1013.66 1013.62 1013.60 1013.62 1013.70 1013.83 1013.99 1014.15 1014.28
1013.92 1015.23 1016.32 1017.05 1017.35 1017.21 1016.72 1016.02 1015.26 1014.61 1014.20 1014.06 1014.20 1014.51 1014.89 1015.22 1015.39 1015.35 1015.12 1014.75 1014.33 1013.96 1013.69 1013.57 1013.59 1013.70 1013.84 1013.95 1013.99 1013.96 1013.85 1013.71 1013.59 1013.49 1013.45 1013.45 1013.47 1013.48 1013.47 1013.42 1013.36 1013.30 1013.28 1013.33 1013.44 1013.61 1013.81 1014.01 1014.16
1014.33 1015.54 1016.46 1017.01 1017.14 1016.89 1016.35 1015.67 1015.01 1014.50 1014.24 1014.23 1014.45 1014.79 1015.16 1015.44 1015.55 1015.47 1015.23 1014.88 1014.52 1014.22 1014.02 1013.94 1013.97 1014.05 1014.12 1014.15 1014.10 1013.98 1013.81 1013.64 1013.49 1013.39 1013.35 1013.34 1013.35 1013.33 1013.29 1013.22 1013.14 1013.07 1013.06 1013.12 1013.25 1013.44 1013.66 1013.88 1014.05
1014.72 1015.76 1016.48 1016.82 1016.78 1016.43 1015.88 1015.27 1014.74 1014.41 1014.31 1014.44 1014.74 1015.12 1015.46 1015.68 1015.74 1015.63 1015.38 1015.07 1014.77 1014.54 1014.41 1014.37 1014.40 1014.43 1014.43 1014.36 1014.21 1014.00 1013.77 1013.56 1013.40 1013.30 1013.27 1013.27 1013.28 1013.26 1013.20 1013.11 1013.02 1012.95 1012.93 1012.99 1013.12 1013.32 1013.54 1013.76 1013.93
1015.06 1015.91 1016.40 1016.53 1016.33 1015.90 1015.36 1014.84 1014.47 1014.31 1014.38 1014.64 1015.01 1015.40 1015.72 1015.89 1015.90 1015.76 1015.52 1015.25 1015.02 1014.87 1014.80 1014.80 1014.82 1014.80 1014.73 1014.56 1014.32 1014.03 1013.75 1013.51 1013.34 1013.26 1013.24 1013.26 1013.28 1013.26 1013.20 1013.10 1012.99 1012.91 1012.88 1012.93 1013.05 1013.22 1013.43 1013.63 1013.79
1015.37 1016.02 1016.29 1016.22 1015.88 1015.39 1014.87 1014.45 1014.21 1014.21 1014.42 1014.79 1015.21 1015.60 1015.88 1016.00 1015.97 1015.81 1015.59 1015.38 1015.22 1015.14 1015.13 1015.16 1015.17 1015.12 1014.98 1014.74 1014.42 1014.08 1013.76 1013.51 1013.35 1013.29 1013.29 1013.33 1013.35 1013.34 1013.27 1013.16 1013.03 1012.93 1012.88 1012.90 1012.99 1013.13 1013.31 1013.48 1013.62
1015.67 1016.14 1016.22 1015.99 1015.53 1014.99 1014.49 1014.15 1014.03 1014.15 1014.45 1014.87 1015.31 1015.67 1015.91 1015.98 1015.92 1015.76 1015.57 1015.41 1015.33 1015.32 1015.36 1015.42 1015.43 1015.34 1015.16 1014.86 1014.51 1014.13 1013.80 1013.56 1013.42 1013.38 1013.40 1013.45 1013.48 1013.46 1013.38 1013.25 1013.10 1012.97 1012.88 1012.87 1012.92 1013.03 1013.16 1013.30 1013.42
1015.98 1016.31 1016.25 1015.89 1015.36 1014.79 1014.31 1014.02 1013.97 1014.15 1014.49 1014.92 1015.33 1015.64 1015.82 1015.84 1015.75 1015.60 1015.44 1015.34 1015.32 1015.37 1015.45 1015.53 1015.54 1015.45 1015.24 1014.92 1014.56 1014.19 1013.87 1013.65 1013.53 1013.51 1013.55 1013.60 1013.62 1013.59 1013.49 1013.33 1013.16 1013.00 1012.88 1012.82 1012.84 1012.90 1013.00 1013.10 1013.20
1016.31 1016.55 1016.41 1015.98 1015.40 1014.82 1014.36 1014.10 1014.07 1014.25 1014.58 1014.95 1015.29 1015.53 1015.64 1015.62 1015.50 1015.36 1015.24 1015.18 1015.21 1015.30 1015.42 1015.51 1015.53 1015.43 1015.22 1014.92 1014.57 1014.23 1013.94 1013.75 1013.66 1013.66 1013.70 1013.74 1013.75 1013.69 1013.57 1013.39 1013.19 1013.01 1012.86 1012.77 1012.75 1012.77 1012.83 1012.91 1012.98
1016.64 1016.86 1016.67 1016.22 1015.64 1015.07 1014.62 1014.36 1014.32 1014.46 1014.71 1014.99 1015.24 1015.38 1015.42 1015.35 1015.22 1015.09 1015.00 1014.98 1015.04 1015.16 1015.30 1015.39 1015.41 1015.32 1015.13 1014.86 1014.55 1014.25 1014.01 1013.86 1013.79 1013.79 1013.82 1013.84 1013.82 1013.74 1013.60 1013.41 1013.20 1013.00 1012.84 1012.72 1012.67 1012.66 1012.68 1012.72 1012.77
1016.97 1017.17 1017.00 1016.56 1016.01 1015.47 1015.03 1014.76 1014.67 1014.73 1014.88 1015.04 1015.17 1015.22 1015.19 1015.09 1014.96 1014.84 1014.78 1014.79 1014.88 1015.00 1015.13 1015.22 1015.24 1015.16 1015.00 1014.77 1014.52 1014.28 1014.09 1013.96 1013.90 1013.89 1013.89 1013.88 1013.83 1013.73 1013.58 1013.39 1013.19 1013.00 1012.83 1012.71 1012.62 1012.58 1012.57 1012.58 1012.60
1017.21 1017.42 1017.27 1016.89 1016.39 1015.88 1015.46 1015.18 1015.03 1015.00 1015.03 1015.08 1015.10 1015.07 1014.99 1014.87 1014.75 1014.66 1014.63 1014.66 1014.75 1014.87 1014.99 1015.07 1015.08 1015.02 1014.89 1014.71 1014.52 1014.33 1014.18 1014.07 1014.00 1013.96 1013.93 1013.88 1013.80 1013.68 1013.53 1013.36 1013.17 1013.00 1012.85 1012.73 1012.63 1012.56 1012.51 1012.48 1012.47
1017.33 1017.54 1017.42 1017.10 1016.66 1016.21 1015.82 1015.53 1015.32 1015.20 1015.13 1015.07 1015.00 1014.91 1014.80 1014.69 1014.60 1014.56 1014.56 1014.61 1014.70 1014.80 1014.90 1014.96 1014.97 1014.93 1014.84 1014.71 1014.57 1014.44 1014.31 1014.21 1014.12 1014.04 1013.95 1013.85 1013.74 1013.61 1013.46 1013.32 1013.17 1013.04 1012.91 1012.80 1012.69 1012.59 1012.51 1012.44 1012.38
1017.28 1017.47 1017.38 1017.12 1016.77 1016.39 1016.04 1015.74 1015.49 1015.30 1015.13 1014.99 1014.85 1014.73 1014.62 1014.55 1014.51 1014.52 1014.56 1014.64 1014.73 1014.81 1014.88 1014.92 1014.93 1014.91 1014.86 1014.79 1014.70 1014.61 1014.51 1014.40 1014.27 1014.14 1013.99 1013.84 1013.68 1013.54 1013.41 1013.29 1013.19 1013.10 1013.01 1012.90 1012.79 1012.67 1012.55 1012.44 1012.34
1017.04 1017.20 1017.15 1016.96 1016.70 1016.40 1016.10 1015.81 1015.54 1015.28 1015.04 1014.83 1014.65 1014.52 1014.44 1014.42 1014.45 1014.52 1014.61 1014.71 1014.80 1014.87 1014.92 1014.94 1014.95 1014.95 1014.94 1014.92 1014.89 1014.84 1014.76 1014.64 1014.48 1014.29 1014.08 1013.86 1013.67 1013.51 1013.38 1013.30 1013.24 1013.18 1013.12 1013.03 1012.92 1012.78 1012.63 1012.48 1012.35
1016.63 1016.77 1016.77 1016.67 1016.51 1016.31 1016.07 1015.80 1015.50 1015.19 1014.89 1014.62 1014.41 1014.28 1014.24 1014.28 1014.38 1014.52 1014.66 1014.79 1014.89 1014.94 1014.97 1014.98 1014.99 1015.01 1015.04 1015.08 1015.11 1015.10 1015.05 1014.92 1014.73 1014.49 1014.21 1013.94 1013.71 1013.52 1013.40 1013.33 1013.30 1013.28 1013.24 1013.17 1013.05 1012.90 1012.72 1012.55 1012.39
1016.12 1016.26 1016.34 1016.36 1016.32 1016.22 1016.04 1015.78 1015.46 1015.09 1014.72 1014.39 1014.15 1014.02 1014.01 1014.11 1014.28 1014.49 1014.68 1014.83 1014.93 1014.97 1014.98 1014.97 1014.99 1015.03 1015.11 1015.21 1015.30 1015.35 1015.32 1015.21 1015.00 1014.72 1014.40 1014.08 1013.80 1013.58 1013.45 1013.38 1013.37 1013.37 1013.35 1013.28 1013.17 1013.01 1012.82 1012.63 1012.46
1015.58 1015.79 1015.99 1016.15 1016.25 1016.25 1016.13 1015.88 1015.51 1015.07 1014.61 1014.21 1013.92 1013.77 1013.78 1013.92 1014.15 1014.41 1014.64 1014.81 1014.90 1014.93 1014.91 1014.89 1014.90 1014.97 1015.09 1015.24 1015.40 1015.50 1015.53 1015.44 1015.23 1014.94 1014.59 1014.23 1013.92 1013.67 1013.52 1013.45 1013.43 1013.44 1013.42 1013.37 1013.25 1013.09 1012.90 1012.71 1012.54
1015.13 1015.47 1015.82 1016.15 1016.40 1016.50 1016.42 1016.16 1015.72 1015.17 1014.61 1014.11 1013.74 1013.55 1013.55 1013.71 1013.98 1014.27 1014.53 1014.71 1014.80 1014.80 1014.76 1014.71 1014.72 1014.79 1014.94 1015.15 1015.36 1015.53 1015.61 1015.57 1015.39 1015.11 1014.75 1014.38 1014.04 1013.77 1013.59 1013.51 1013.48 1013.48 1013.46 1013.41 1013.30 1013.14 1012.96 1012.77 1012.62
1014.84 1015.35 1015.89 1016.40 1016.78 1016.97 1016.92 1016.60 1016.08 1015.41 1014.71 1014.08 1013.62 1013.37 1013.34 1013.50 1013.78 1014.10 1014.37 1014.56 1014.63 1014.61 1014.53 1014.46 1014.44 1014.51 1014.68 1014.92 1015.18 1015.41 1015.56 1015.57 1015.44 1015.19 1014.85 1014.48 1014.13 1013.85 1013.65 1013.55 1013.50 1013.49 1013.47 1013.41 1013.30 1013.15 1012.97 1012.80 1012.65
1014.75 1015.45 1016.18 1016.86 1017.36 1017.61 1017.55 1017.16 1016.52 1015.71 1014.86 1014.11 1013.54 1013.21 1013.15 1013.29 1013.57 1013.90 1014.19 1014.37 1014.43 1014.39 1014.28 1014.17 1014.12 1014.17 1014.34 1014.59 1014.89 1015.17 1015.36 1015.44 1015.36 1015.16 1014.86 1014.51 1014.17 1013.89 1013.68 1013.56 1013.50 1013.47 1013.43 1013.37 1013.27 1013.12 1012.95 1012.78 1012.64
1014.85 1015.73 1016.63 1017.44 1018.02 1018.29 1018.18 1017.71 1016.95 1016.00 1015.01 1014.13 1013.46 1013.07 1012.96 1013.09 1013.37 1013.71 1014.01 1014.19 1014.25 1014.18 1014.04 1013.90 1013.81 1013.84 1013.98 1014.23 1014.53 1014.83 1015.07 1015.19 1015.17 1015.02 1014.77 1014.46 1014.15 1013.88 1013.68 1013.54 1013.47 1013.42 1013.37 1013.30 1013.20 1013.05 1012.88 1012.71 1012.57
1015.09 1016.11 1017.12 1018.00 1018.60 1018.84 1018.67 1018.11 1017.23 1016.16 1015.06 1014.08 1013.34 1012.90 1012.77 1012.89 1013.18 1013.53 1013.84 1014.04 1014.09 1014.02 1013.86 1013.69 1013.57 1013.56 1013.66 1013.88 1014.17 1014.47 1014.72 1014.87 1014.90 1014.80 1014.60 1014.34 1014.07 1013.83 1013.63 1013.50 1013.41 1013.35 1013.29 1013.21 1013.10 1012.95 1012.77 1012.60 1012.43
1015.39 1016.47 1017.52 1018.39 1018.96 1019.14 1018.89 1018.23 1017.26 1016.11 1014.95 1013.93 1013.16 1012.70 1012.56 1012.69 1013.00 1013.36 1013.69 1013.90 1013.97 1013.91 1013.75 1013.56 1013.41 1013.36 1013.43 1013.60 1013.85 1014.12 1014.36 1014.53 1014.58 1014.53 1014.38 1014.17 1013.94 1013.73 1013.56 1013.43 1013.34 1013.27 1013.20 1013.11 1012.98 1012.82 1012.63 1012.44 1012.25
1015.65 1016.71 1017.71 1018.51 1019.00 1019.08 1018.74 1018.01 1017.00 1015.82 1014.66 1013.65 1012.89 1012.46 1012.34 1012.48 1012.80 1013.18 1013.53 1013.76 1013.86 1013.81 1013.67 1013.49 1013.33 1013.25 1013.28 1013.40 1013.60 1013.83 1014.04 1014.19 1014.26 1014.23 1014.12 1013.96 1013.78 1013.61 1013.46 1013.35 1013.26 1013.18 1013.09 1012.98 1012.84 1012.66 1012.46 1012.24 1012.03
1015.80 1016.76 1017.63 1018.30 1018.65 1018.63 1018.21 1017.45 1016.44 1015.30 1014.20 1013.25 1012.56 1012.18 1012.09 1012.26 1012.58 1012.97 1013.32 1013.57 1013.69 1013.68 1013.57 1013.42 1013.28 1013.19 1013.19 1013.27 1013.42 1013.60 1013.77 1013.89 1013.95 1013.93 1013.85 1013.74 1013.60 1013.47 1013.35 1013.25 1013.17 1013.08 1012.97 1012.84 1012.67 1012.47 1012.25 1012.02 1011.79
1015.78 1016.58 1017.28 1017.77 1017.97 1017.84 1017.37 1016.62 1015.66 1014.62 1013.63 1012.80 1012.21 1011.89 1011.84 1012.01 1012.33 1012.70 1013.04 1013.29 1013.43 1013.45 1013.39 1013.28 1013.17 1013.11 1013.10 1013.16 1013.26 1013.39 1013.51 1013.60 1013.65 1013.64 1013.58 1013.50 1013.41 1013.31 1013.23 1013.14 1013.06 1012.96 1012.83 1012.67 1012.48 1012.25 1012.01 1011.77 1011.53
Thickness
5808 5803 5797 5782 5761 5747 5747 5761 5772 5778 5781 5786 5789 5783 5771 5763 5757 5749 5769 5779 5779 5776 5774 5773 5772 5771 5770 5770 5769 5769 5768 5767 5767 5766 5765 5765 5764 5764 5763 5763 5762 5762 5761 5761 5761 5761 5761 5761 5761
5808 5802 5788 5772 5750 5736 5745 5763 5770 5781 5786 5790 5786 5780 5770 5765 5770 5768 5771 5774 5775 5773 5772 5771 5770 5769 5768 5767 5766 5766 5765 5765 5764 5764 5763 5763 5762 5762 5761 5761 5761 5760 5760 5759 5759 5759 5759 5759 5759
5808 5801 5777 5761 5748 5741 5750 5766 5774 5787 5794 5789 5776 5773 5766 5762 5768 5768 5772 5773 5772 5770 5769 5768 5767 5766 5765 5764 5763 5762 5762 5761 5761 5761 5760 5760 5760 5760 5759 5759 5759 5759 5758 5758 5758 5757 5757 5757 5757
5802 5786 5772 5756 5748 5756 5763 5771 5780 5783 5786 5785 5775 5762 5763 5769 5769 5770 5772 5771 5768 5766 5765 5763 5762 5761 5760 5759 5759 5758 5758 5757 5757 5757 5757 5757 5757 5757 5757 5757 5757 5757 5757 5756 5756 5756 5755 5755 5755
5795 5776 5757 5747 5751 5761 5770 5778 5784 5779 5777 5775 5770 5755 5753 5765 5770 5769 5768 5766 5763 5761 5760 5758 5757 5756 5755 5754 5753 5753 5753 5753 5753 5753 5753 5753 5753 5754 5754 5755 5755 5755 5755 5755 5754 5754 5754 5754 5754
5780 5767 5747 5740 5749 5761 5770 5779 5781 5774 5771 5770 5764 5752 5750 5762 5763 5763 5763 5761 5758 5756 5754 5752 5751 5749 5748 5748 5747 5747 5747 5747 5748 5748 5748 5749 5749 5750 5751 5751 5752 5753 5753 5753 5753 5753 5753 5752 5753
5773 5760 5749 5747 5748 5755 5769 5780 5775 5769 5767 5768 5766 5748 5748 5756 5759 5760 5758 5755 5752 5750 5747 5745 5743 5742 5741 5741 5740 5740 5741 5741 5742 5742 5743 5744 5745 5746 5747 5747 5748 5750 5750 5750 5751 5751 5751 5751 5751
5782 5763 5751 5747 5747 5753 5773 5779 5777 5771 5765 5773 5767 5746 5741 5752 5757 5755 5751 5747 5744 5742 5740 5737 5736 5734 5734 5733 5733 5733 5733 5734 5735 5736 5737 5738 5740 5741 5742 5743 5744 5746 5747 5748 5748 5749 5750 5750 5750
5783 5753 5742 5748 5751 5758 5773 5772 5773 5775 5766 5764 5762 5756 5754 5756 5752 5745 5740 5737 5735 5734 5733 5731 5729 5727 5726 5726 5725 5725 5726 5727 5728 5729 5731 5732 5734 5735 5737 5738 5740 5742 5744 5745 5746 5746 5747 5748 5749
5769 5745 5750 5762 5765 5765 5770 5770 5767 5760 5752 5749 5750 5753 5755 5750 5744 5737 5732 5728 5726 5725 5725 5725 5723 5721 5719 5718 5718 5718 5718 5720 5721 5722 5724 5725 5727 5729 5731 5733 5735 5737 5740 5741 5743 5743 5744 5746 5747
5764 5752 5758 5765 5772 5771 5767 5768 5769 5752 5741 5744 5744 5745 5746 5742 5737 5731 5728 5725 5723 5722 5720 5719 5717 5715 5713 5712 5711 5711 5711 5712 5714 5715 5717 5718 5720 5721 5724 5727 5730 5732 5735 5737 5739 5740 5741 5743 5744
5757 5756 5760 5764 5773 5770 5766 5764 5759 5753 5749 5754 5751 5747 5741 5735 5731 5727 5724 5722 5720 5717 5715 5714 5712 5710 5708 5706 5705 5705 5704 5705 5706 5708 5709 5710 5712 5714 5717 5719 5723 5726 5729 5732 5734 5736 5738 5740 5741
5753 5752 5758 5766 5771 5769 5767 5760 5754 5750 5755 5754 5750 5744 5738 5733 5729 5727 5725 5721 5718 5713 5711 5709 5708 5705 5703 5701 5700 5699 5698 5699 5700 5701 5702 5703 5704 5706 5709 5712 5716 5719 5723 5726 5729 5731 5733 5736 5737
5754 5754 5753 5758 5763 5764 5757 5753 5750 5746 5753 5749 5744 5738 5736 5733 5729 5725 5721 5717 5714 5711 5709 5706 5704 5701 5699 5696 5694 5694 5693 5693 5693 5693 5694 5696 5697 5699 5702 5705 5709 5713 5716 5720 5723 5726 5728 5730 5733
5754 5746 5744 5749 5754 5756 5753 5739 5744 5751 5751 5744 5740 5737 5735 5732 5729 5724 5721 5717 5714 5710 5708 5704 5702 5699 5695 5692 5690 5689 5688 5687 5686 5686 5688 5689 5690 5693 5695 5698 5702 5706 5710 5714 5717 5721 5723 5726 5729
5741 5732 5726 5742 5748 5751 5742 5726 5745 5750 5746 5738 5735 5734 5732 5731 5728 5726 5723 5718 5714 5710 5706 5703 5701 5696 5692 5689 5687 5685 5683 5682 5681 5681 5681 5682 5684 5686 5689 5692 5695 5700 5704 5707 5711 5714 5717 5720 5723
5726 5717 5719 5732 5746 5747 5737 5730 5744 5747 5743 5736 5733 5731 5729 5727 5726 5725 5723 5719 5715 5710 5706 5701 5698 5694 5690 5687 5684 5682 5680 5678 5677 5676 5676 5676 5678 5680 5683 5685 5689 5693 5697 5701 5705 5708 5711 5713 5717
5718 5717 5721 5726 5741 5740 5732 5732 5739 5743 5741 5735 5732 5729 5727 5725 5724 5725 5722 5719 5715 5710 5706 5701 5696 5692 5689 5685 5682 5679 5677 5675 5674 5672 5671 5672 5673 5675 5677 5680 5684 5688 5691 5694 5698 5701 5705 5708 5711
5733 5728 5724 5733 5747 5738 5730 5731 5735 5739 5737 5733 5730 5728 5726 5725 5726 5724 5721 5717 5713 5709 5704 5700 5695 5691 5687 5682 5678 5675 5672 5671 5670 5670 5669 5668 5669 5671 5673 5675 5678 5682 5685 5688 5692 5695 5698 5702 5706
5736 5727 5725 5735 5747 5737 5728 5731 5738 5739 5738 5736 5732 5729 5728 5724 5723 5721 5719 5715 5712 5708 5704 5699 5695 5691 5687 5683 5679 5675 5672 5670 5669 5668 5667 5666 5667 5668 5670 5671 5674 5677 5679 5682 5686 5688 5691 5695 5699
5730 5725 5726 5729 5739 5738 5730 5721 5729 5737 5740 5737 5736 5734 5731 5728 5723 5720 5717 5714 5711 5708 5704 5701 5696 5692 5688 5684 5680 5676 5672 5669 5667 5666 5665 5665 5665 5666 5667 5668 5670 5673 5675 5676 5680 5683 5685 5687 5692
5724 5740 5738 5734 5719 5709 5720 5697 5719 5728 5730 5732 5732 5731 5731 5730 5726 5721 5718 5714 5712 5710 5707 5703 5698 5694 5690 5686 5680 5675 5669 5665 5664 5664 5663 5664 5665 5665 5665 5666 5667 5669 5671 5672 5675 5679 5680 5682 5684
5734 5747 5741 5734 5720 5708 5711 5700 5707 5724 5721 5727 5730 5732 5732 5731 5728 5724 5721 5718 5716 5713 5709 5705 5700 5696 5692 5688 5682 5677 5672 5668 5666 5665 5663 5663 5663 5663 5663 5664 5664 5665 5666 5668 5670 5673 5676 5677 5679
5746 5736 5726 5711 5702 5690 5707 5698 5703 5714 5725 5730 5732 5734 5733 5732 5730 5727 5725 5722 5718 5715 5711 5707 5701 5697 5694 5689 5685 5679 5675 5671 5667 5665 5662 5661 5661 5661 5661 5662 5661 5662 5663 5664 5666 5668 5670 5672 5675
5732 5708 5687 5686 5675 5684 5709 5705 5708 5730 5739 5738 5735 5734 5734 5732 5730 5727 5724 5721 5718 5715 5712 5708 5703 5698 5695 5691 5687 5682 5678 5674 5669 5666 5663 5661 5659 5658 5659 5659 5659 5660 5660 5661 5662 5663 5665 5667 5669
5725 5709 5685 5677 5675 5686 5709 5703 5716 5739 5743 5744 5741 5738 5735 5732 5731 5729 5727 5724 5721 5718 5714 5710 5704 5700 5697 5693 5689 5685 5681 5676 5672 5669 5665 5662 5660 5658 5658 5658 5658 5658 5658 5659 5659 5659 5660 5662 5664
5722 5710 5708 5690 5690 5684 5692 5707 5723 5735 5735 5736 5736 5735 5734 5734 5733 5732 5730 5727 5724 5720 5717 5713 5707 5703 5699 5695 5691 5687 5683 5679 5675 5671 5668 5664 5662 5660 5658 5657 5656 5656 5656 5656 5655 5655 5656 5657 5658
5730 5717 5697 5689 5679 5674 5688 5696 5699 5719 5725 5731 5732 5733 5735 5736 5735 5734 5732 5729 5727 5724 5720 5716 5711 5706 5702 5697 5693 5689 5685 5681 5677 5673 5669 5666 5663 5661 5658 5657 5656 5655 5654 5653 5652 5652 5652 5652 5653
5724 5719 5699 5683 5680 5672 5676 5692 5726 5728 5732 5733 5735 5738 5738 5738 5737 5735 5733 5732 5729 5726 5722 5717 5712 5707 5703 5699 5695 5690 5686 5682 5678 5674 5670 5667 5664 5661 5658 5656 5655 5653 5652 5651 5649 5648 5648 5647 5648
5726 5719 5701 5686 5686 5679 5673 5694 5740 5740 5741 5741 5741 5743 5743 5742 5740 5737 5735 5732 5728 5725 5722 5718 5713 5709 5705 5701 5696 5691 5687 5683 5678 5675 5671 5668 5664 5661 5659 5656 5654 5652 5650 5648 5646 5645 5644 5643 5643